Woodlawn, VA

1:12 PM EST on February 07, 2016 (GMT -0500)
Twin County

Weather History for KHLX - December, 2012

Change the Weather History Date:

Saturday, December 29, 2012

  Actual Average (KBLF) Record (KBLF)
Temperature  
Mean Temperature 36 °F 35 °F  
Max Temperature 41 °F 42 °F 67 °F (2015)
Min Temperature 30 °F 27 °F 3 °F (1961)
Degree Days  
Heating Degree Days 30 30  
Month to date heating degree days 800  
Since 1 July heating degree days 1703  
Cooling Degree Days 0 0  
Month to date cooling degree days 0  
Year to date cooling degree days 853  
Moisture  
Dew Point 31 °F    
Average Humidity 86    
Maximum Humidity 100    
Minimum Humidity 69    
Precipitation  
Precipitation 0.34 in 0.09 in 0.92 in (2013)
Month to date precipitation 2.73  
Year to date precipitation 39.45  
Snow  
Snow 0.00 in - - ()
Month to date snowfall  
Since 1 July snowfall  
Snow Depth -    
Sea Level Pressure  
Sea Level Pressure 29.78 in    
Wind  
Wind Speed 10 mph (West)    
Max Wind Speed 24 mph    
Max Gust Speed 34 mph    
Visibility 7 miles    
Events Fog , Snow    
T = Trace of Precipitation, MM = Missing Value Source: NWS Daily Summary

Daily Weather History Graph

Daily Weather History Graph

Search for Another Location

Airport or City:

Trip Planner

Search our weather history database for the weather conditions in past years. The results will help you decide how hot, cold, wet, or windy it might be!

Date:

Astronomy

Dec. 29, 2012 Rise Set
Actual Time 7:35 AM EST 5:15 PM EST
Civil Twilight 7:06 AM EST 5:44 PM EST
Nautical Twilight 6:34 AM EST 6:17 PM EST
Astronomical Twilight 6:02 AM EST 6:48 PM EST
Moon 6:44 PM EST (12/29) 8:10 AM EST (12/29)
Length of Visible Light 10h 38m
Length of Day
9h 40m
Full, 98% of the Moon is Illuminated
Dec 29
Full
Jan 4
Last Quarter
Jan 11
New
Jan 18
First Quarter
Jan 26
Full

Hourly Weather History & Observations

Time (EST) Temp. Windchill Dew Point Humidity Pressure Visibility Wind Dir Wind Speed Gust Speed Precip Events Conditions
12:15 AM 33.8 °F 26.4 °F 32.0 °F 93% 29.88 in 4.0 mi South 9.2 mph - N/A   Overcast
12:35 AM 33.8 °F 27.7 °F 32.0 °F 93% 29.86 in 4.0 mi South 6.9 mph 18.4 mph 0.01 in   Overcast
12:55 AM 33.8 °F 27.0 °F 32.0 °F 93% 29.85 in 5.0 mi SSE 8.1 mph - N/A   Overcast
1:15 AM 35.6 °F 28.0 °F 33.8 °F 93% 29.83 in 4.0 mi SSE 10.4 mph 17.3 mph 0.01 in   Overcast
1:35 AM 35.6 °F 28.6 °F 33.8 °F 93% 29.83 in 7.0 mi South 9.2 mph 16.1 mph 0.02 in   Overcast
1:55 AM 35.6 °F 28.6 °F 33.8 °F 93% 29.83 in 7.0 mi South 9.2 mph 17.3 mph 0.01 in   Overcast
2:15 AM 33.8 °F 27.7 °F 32.0 °F 93% 29.82 in 5.0 mi South 6.9 mph - 0.03 in   Mostly Cloudy
2:35 AM 33.8 °F 28.6 °F 33.8 °F 100% 29.83 in 4.0 mi South 5.8 mph - 0.07 in   Mostly Cloudy
2:55 AM 33.8 °F 29.6 °F 33.8 °F 100% 29.80 in 4.0 mi SSE 4.6 mph - 0.01 in   Mostly Cloudy
3:15 AM 35.6 °F 29.2 °F 33.8 °F 93% 29.78 in 7.0 mi South 8.1 mph - 0.01 in   Scattered Clouds
3:35 AM 35.6 °F 29.2 °F 33.8 °F 93% 29.78 in 7.0 mi South 8.1 mph 17.3 mph 0.01 in   Mostly Cloudy
3:55 AM 33.8 °F 27.0 °F 33.8 °F 100% 29.75 in 5.0 mi South 8.1 mph - N/A   Overcast
4:15 AM 33.8 °F 27.0 °F 33.8 °F 100% 29.75 in 5.0 mi South 8.1 mph - N/A   Overcast
4:35 AM 33.8 °F 27.7 °F 32.0 °F 93% 29.75 in 0.5 mi South 6.9 mph - N/A Fog Fog
4:55 AM 33.8 °F 29.6 °F 32.0 °F 93% 29.73 in 0.2 mi South 4.6 mph - N/A Fog Fog
5:15 AM 33.8 °F 28.6 °F 32.0 °F 93% 29.70 in 0.2 mi SSE 5.8 mph - N/A Fog Fog
5:35 AM 33.8 °F 28.6 °F 32.0 °F 93% 29.70 in 0.2 mi South 5.8 mph - N/A Fog Fog
5:55 AM 33.8 °F 29.6 °F 33.8 °F 100% 29.71 in 0.8 mi South 4.6 mph - N/A   Overcast
6:15 AM 35.6 °F 29.9 °F 33.8 °F 93% 29.73 in 2.0 mi SSW 6.9 mph - N/A   Overcast
6:35 AM 35.6 °F 30.7 °F 33.8 °F 93% 29.74 in 3.0 mi SSW 5.8 mph - N/A Snow Light Snow
6:55 AM 35.6 °F - 33.8 °F 93% 29.73 in 4.0 mi Calm Calm - N/A   Overcast
7:15 AM 35.6 °F - 33.8 °F 93% 29.72 in 4.0 mi Calm Calm - N/A Snow Light Snow
7:35 AM 35.6 °F - 33.8 °F 93% 29.72 in 4.0 mi Calm Calm - N/A   Mostly Cloudy
7:55 AM 35.6 °F - 33.8 °F 93% 29.71 in 4.0 mi Calm Calm - N/A   Mostly Cloudy
8:15 AM 35.6 °F - 33.8 °F 93% 29.71 in 5.0 mi Calm Calm - N/A   Mostly Cloudy
8:35 AM 35.6 °F - 33.8 °F 93% 29.70 in 5.0 mi Calm Calm - N/A   Mostly Cloudy
8:55 AM 35.6 °F - 33.8 °F 93% 29.71 in 5.0 mi Calm Calm - N/A   Scattered Clouds
9:15 AM 35.6 °F - 33.8 °F 93% 29.71 in 5.0 mi Calm Calm - N/A   Scattered Clouds
9:35 AM 35.6 °F - 33.8 °F 93% 29.71 in 4.0 mi Calm Calm - N/A   Scattered Clouds
9:55 AM 35.6 °F - 33.8 °F 93% 29.72 in 3.0 mi Calm Calm - N/A   Mostly Cloudy
10:15 AM 35.6 °F - 35.6 °F 100% 29.72 in 4.0 mi Calm Calm - 0.02 in   Mostly Cloudy
10:35 AM 35.6 °F - 35.6 °F 100% 29.72 in 4.0 mi Calm Calm - 0.06 in Snow Light Snow
10:55 AM 37.4 °F - 35.6 °F 93% 29.71 in 7.0 mi Calm Calm - 0.01 in   Mostly Cloudy
11:15 AM 37.4 °F 32.1 °F 35.6 °F 93% 29.70 in 7.0 mi WSW 6.9 mph - 0.02 in   Mostly Cloudy
11:35 AM 39.2 °F 30.8 °F 37.4 °F 93% 29.70 in 10.0 mi West 15.0 mph 21.9 mph 0.06 in   Mostly Cloudy
11:55 AM 39.2 °F 31.6 °F 37.4 °F 93% 29.69 in 10.0 mi West 12.7 mph 25.3 mph 0.03 in   Unknown
12:15 PM 41.0 °F 32.2 °F 35.6 °F 81% 29.68 in 10.0 mi WNW 18.4 mph 27.6 mph 0.07 in   Scattered Clouds
12:35 PM 41.0 °F 31.1 °F 35.6 °F 81% 29.68 in 10.0 mi West 23.0 mph 33.4 mph 0.10 in   Scattered Clouds
12:55 PM 39.2 °F 29.3 °F 35.6 °F 87% 29.68 in 10.0 mi WNW 20.7 mph 26.5 mph 0.01 in   Mostly Cloudy
1:15 PM 39.2 °F 32.0 °F 33.8 °F 81% 29.67 in 10.0 mi West 11.5 mph 26.5 mph 0.02 in   Mostly Cloudy
1:35 PM 41.0 °F 31.9 °F 33.8 °F 76% 29.68 in 10.0 mi WNW 19.6 mph 29.9 mph 0.02 in   Overcast
1:55 PM 41.0 °F 32.8 °F 32.0 °F 70% 29.68 in 10.0 mi WNW 16.1 mph 33.4 mph N/A   Overcast
2:15 PM 39.2 °F 29.3 °F 32.0 °F 75% 29.69 in 10.0 mi WNW 20.7 mph 25.3 mph N/A   Overcast
2:35 PM 39.2 °F 28.7 °F 30.2 °F 70% 29.70 in 10.0 mi WNW 23.0 mph 32.2 mph N/A   Overcast
2:55 PM 37.4 °F 28.5 °F 30.2 °F 75% 29.71 in 10.0 mi WNW 15.0 mph 32.2 mph N/A   Overcast
3:15 PM 37.4 °F 29.8 °F 30.2 °F 75% 29.72 in 10.0 mi WNW 11.5 mph 26.5 mph N/A   Overcast
3:35 PM 37.4 °F 28.5 °F 30.2 °F 75% 29.73 in 10.0 mi WNW 15.0 mph 20.7 mph N/A   Overcast
3:55 PM 37.4 °F 28.9 °F 30.2 °F 75% 29.74 in 10.0 mi WNW 13.8 mph 25.3 mph N/A   Overcast
4:15 PM 35.6 °F 25.2 °F 30.2 °F 81% 29.75 in 10.0 mi WNW 18.4 mph 27.6 mph N/A   Overcast
4:35 PM 35.6 °F 25.2 °F 30.2 °F 81% 29.75 in 10.0 mi West 18.4 mph 24.2 mph N/A   Overcast
4:55 PM 35.6 °F 25.9 °F 30.2 °F 81% 29.77 in 7.0 mi WNW 16.1 mph 26.5 mph N/A   Overcast
5:15 PM 35.6 °F 24.8 °F 30.2 °F 81% 29.77 in 10.0 mi WNW 19.6 mph 27.6 mph N/A   Overcast
5:35 PM 35.6 °F 25.2 °F 28.4 °F 75% 29.78 in 10.0 mi WNW 18.4 mph 27.6 mph N/A   Overcast
5:55 PM 35.6 °F 24.2 °F 28.4 °F 75% 29.79 in 10.0 mi WNW 21.9 mph 28.8 mph N/A   Overcast
6:15 PM 35.6 °F 25.2 °F 28.4 °F 75% 29.80 in 10.0 mi WNW 18.4 mph 29.9 mph N/A   Overcast
6:35 PM 33.8 °F 22.8 °F 28.4 °F 81% 29.81 in 10.0 mi WNW 18.4 mph 33.4 mph N/A   Overcast
6:55 PM 33.8 °F 21.3 °F 28.4 °F 81% 29.83 in 10.0 mi WNW 24.2 mph 32.2 mph N/A   Overcast
7:15 PM 33.8 °F 22.2 °F 28.4 °F 81% 29.84 in 10.0 mi WNW 20.7 mph 31.1 mph N/A   Overcast
7:35 PM 33.8 °F 21.9 °F 26.6 °F 75% 29.85 in 10.0 mi WNW 21.9 mph 28.8 mph N/A   Overcast
7:55 PM 33.8 °F 22.2 °F 26.6 °F 75% 29.85 in 10.0 mi NW 20.7 mph 31.1 mph N/A   Overcast
8:15 PM 32.0 °F 19.2 °F 24.8 °F 75% 29.86 in 10.0 mi WNW 23.0 mph 34.5 mph N/A   Overcast
8:35 PM 32.0 °F 18.9 °F 24.8 °F 75% 29.87 in 10.0 mi WNW 24.2 mph 32.2 mph N/A   Overcast
8:55 PM 30.2 °F 17.1 °F 24.8 °F 80% 29.88 in 7.0 mi WNW 21.9 mph 31.1 mph N/A Snow Light Snow
9:15 PM 30.2 °F 17.1 °F 24.8 °F 80% 29.88 in 10.0 mi WNW 21.9 mph 31.1 mph N/A Snow Light Snow
9:35 PM 30.2 °F 17.8 °F 24.8 °F 80% 29.90 in 7.0 mi WNW 19.6 mph 29.9 mph N/A Snow Light Snow
9:55 PM 30.2 °F 16.8 °F 23.0 °F 75% 29.90 in 10.0 mi NW 23.0 mph 27.6 mph N/A Snow Light Snow
10:15 PM 30.2 °F 18.5 °F 23.0 °F 75% 29.91 in 7.0 mi WNW 17.3 mph 28.8 mph N/A Snow Light Snow
10:35 PM 30.2 °F 18.1 °F 23.0 °F 75% 29.92 in 10.0 mi WNW 18.4 mph 27.6 mph N/A Snow Light Snow
10:55 PM 30.2 °F 17.4 °F 23.0 °F 75% 29.93 in 7.0 mi WNW 20.7 mph 26.5 mph N/A Snow Light Snow
11:15 PM 30.2 °F 19.8 °F 23.0 °F 75% 29.94 in 7.0 mi WNW 13.8 mph 28.8 mph N/A Snow Light Snow
11:35 PM 30.2 °F 19.3 °F 23.0 °F 75% 29.95 in 7.0 mi NW 15.0 mph 20.7 mph N/A Snow Light Snow
11:55 PM 30.2 °F 20.2 °F 21.2 °F 69% 29.95 in 10.0 mi NW 12.7 mph 23.0 mph N/A   Overcast